Dauntless Aviation
Greetings, Guest! To participate, [sign up for a free account] or [log in]
Airports Europe United Kingdom
EGLC
LCY

London City

London, UNITED KINGDOM

Airport Info
Edit

Location

Latitude / Longitude: 51°30'18"N / 0°3'12"E
  51°30.3'N / 0°3.21'E
  51.5050 / 0.0535

Nearby radio navigation aids

LCY CITY NDB on field.

Runway Information

Runway 10 /28

Dimensions: 4948 x 98 ft.
Surface: ASP
 
Runway 10
Runway 28
Latitude: 51.505528 51.504922
Longitude: 0.045753 0.064953
Elevation: 16 ft. 16 ft.
Runway true heading: 91.1 271.1
 

Instrument Procedures

  Control Zone and Control Area Chart
  Aircraft Parking/Docking Chart
  Aerodrome Chart

STARs (Standard Terminal Arrivals)

  STAR via SPEAR (Northwest)
  STAR via ALKIN (South)
  STAR via SPEAR (East)
  STAR via SPEAR (West)
  STAR via SPEAR (Alternate Holding at LOGAN and ALKIN)

IAPs (Instrument Approach Procedures)

  LOC/DME/NDB (L) Rwy 27 (Aircraft CAT A/B/C)
  Visual Approach Profile Rwy 27
  ILS (5.5°GP) /DME/NDB (L) Rwy 27 (Aircraft CAT A/B/C)
  Visual Approach Profile Rwy 09
  LOC/DME/NDB (L) Rwy 09
  ATC Surveillance Minimum Altitude Chart
  ILS (5.5°GP) /DME/NDB (L) Rwy 09 (Aircraft CAT A/B/C)

Departure Procedures

  SID DOVER/LYDD
  SID CLACTON
  SID SOUTHAMPTON
  SID BROOKMANS PARK/COMPTON
Satellite photo at:
Airport distance calculator
From:
Weather Reports

METAR

EGLC

EGLC 241650Z 30006KT 9999 BKN028 17/13 Q1018
EGKB
11.4nm S
EGKB 241650Z 29006KT 260V320 3500 DZ HZ BKN012 15/12 Q1018
EGWU
17.8nm W
EGWU 241650Z 28007KT 9999 FEW022 SCT026 BKN030 18/12 Q1018 BLU TEMPO SCT022 WHT
EGLL
18.9nm SW
EGLL 241650Z 27007KT 9999 FEW019 BKN023 17/13 Q1018
EGSS
23.5nm N
EGSS 241650Z 25004KT 220V290 9999 FEW010 BKN027 16/14 Q1018
EGKK
23.8nm S
EGKK 241650Z 30008KT 9999 FEW016 SCT025 BKN031 17/13 Q1018

TAF

EGLC
TAF EGLC 241410Z 2415/2421 26008KT 9999 SCT020 TEMPO 2415/2421 BKN014 PROB30 TEMPO 2415/2421 6000 -RADZ BKN009
EGKB
11.4nm S
TAF EGKB 241410Z 2415/2419 24008KT 9999 SCT025 TEMPO 2415/2419 4000 RADZ BKN010 PROB30 TEMPO 2415/2419 BKN007
EGWU
17.8nm W
TAF EGWU 241400Z 2415/2509 28010KT 9999 BKN020 BECMG 2415/2419 6000 -RADZ BKN008 BECMG 2421/2424 9999 NSW SCT025 BECMG 2506/2509 BKN022
EGLL
18.9nm SW
TAF EGLL 241057Z 2412/2518 26008KT 9999 SCT020 TEMPO 2412/2420 8000 -RA BKN012 PROB30 TEMPO 2414/2418 4800 RADZ BKN009 BECMG 2419/2422 34010KT
EGSS
23.5nm N
TAF AMD EGSS 241459Z 2414/2518 26009KT 9999 FEW030 BECMG 2414/2417 BKN014 PROB40 TEMPO 2414/2420 4500 RADZ BKN008 BECMG 2420/2423 32010KT SCT025
EGKK
23.8nm S
TAF EGKK 241058Z 2412/2518 26008KT 9999 SCT020 TEMPO 2413/2424 BKN012 PROB30 TEMPO 2415/2422 6000 -RADZ BKN006 BECMG 2421/2424 34010KT
Safelog

 

Dauntless Aviation

© 2007-2015 Dauntless Aviation, all rights reserved
Information provided via PilotNav comes from a variety of official and unofficial data sources. As errors are possible, do not use PilotNav for primary flight planning purposes. Verify any information that you receive via PilotNav with current and canonical charts and other official documents. The material in this database is subject to database copyrights held by Dauntless Aviation and may not be copied without the express permission of Dauntless Aviation - licenses for use of part of all of this data are available for purchase; enquire via the Dauntless Aviation helpdesk. A number of mechanisms and markers exist in the database to protect against and identify infringement / copyright. Automated queries against this website are stictly prohibited, and all activity is logged and analyzed.